CW7959 Weather Reports


time (UTC)temp
C
wind
direction
speed
KPH
gust
KPH
rain 1hr
cm
rain 24hr
cm
rain mn
cm
humidity
%
barometer
mb
20260504140907 12 213 9.7 16.1 0.00 0.13 0.00 79 1014.9
20260504140405 11 209 9.7 11.3 0.00 0.13 0.00 79 1014.9
20260504110405 11 209 8.0 14.5 0.00 0.13 0.00 68 1015.0
20260504100405 11 217 8.0 14.5 0.00 0.13 0.00 69 1015.1
20260504081905 7 232 4.8 11.3 0.00 0.13 0.00 94 1015.1
20260504081404 7 243 3.2 11.3 0.00 0.13 0.00 96 1015.1
20260504080905 7 245 4.8 8.0 0.00 0.13 0.00 97 1015.1
20260504080404 7 245 1.6 4.8 0.00 0.13 0.00 97 1015.1
20260504070405 5 245 0.0 0.0 0.00 0.13 0.00 97 1014.9
20260504050404 1 342 0.0 1.6 0.00 0.13 0.00 96 1014.8
20260504045404 1 342 1.6 4.8 0.00 0.13 0.00 95 1014.8
20260504044904 1 342 0.0 0.0 0.00 0.13 0.00 96 1014.8
20260504044406 1 342 0.0 0.0 0.00 0.13 0.00 95 1014.9
20260504043904 1 342 0.0 0.0 0.00 0.13 0.00 95 1014.8
20260504043405 1 342 0.0 0.0 0.00 0.13 0.00 96 1014.7
20260504042904 2 342 0.0 0.0 0.00 0.13 0.00 95 1014.6
20260504042406 2 342 0.0 1.6 0.00 0.13 0.00 95 1014.7
20260504041904 2 342 0.0 1.6 0.00 0.13 0.00 95 1014.7
20260504041405 2 342 0.0 0.0 0.00 0.13 0.00 95 1014.7
20260504040405 2 342 0.0 1.6 0.00 0.13 0.00 95 1014.6
20260504035906 2 342 0.0 0.0 0.00 0.13 0.00 96 1014.7
20260504035408 2 342 0.0 0.0 0.00 0.13 0.00 96 1014.7
20260504034905 2 342 0.0 3.2 0.00 0.13 0.00 96 1014.7
20260504034405 1 342 0.0 0.0 0.00 0.13 0.00 95 1014.7
20260504033905 1 342 0.0 1.6 0.00 0.13 0.00 95 1014.7
20260504033405 2 342 0.0 1.6 0.00 0.13 0.00 95 1014.6
20260504032905 2 342 0.0 3.2 0.00 0.13 0.00 95 1014.6
20260504031904 2 342 0.0 0.0 0.00 0.13 0.00 95 1014.6
20260504031406 2 342 0.0 0.0 0.00 0.13 0.00 95 1014.6
20260504030905 2 342 0.0 0.0 0.00 0.13 0.00 95 1014.6
20260504030405 2 342 0.0 0.0 0.00 0.13 0.00 95 1014.6
20260504025905 2 342 0.0 0.0 0.00 0.13 0.00 95 1014.6
20260504025405 2 342 0.0 0.0 0.00 0.13 0.00 95 1014.6
20260504024906 2 342 0.0 0.0 0.00 0.13 0.00 95 1014.7
20260504024406 2 342 0.0 0.0 0.00 0.13 0.00 95 1014.6
20260504023906 2 342 0.0 0.0 0.00 0.13 0.00 95 1014.5
20260504023406 2 342 0.0 0.0 0.00 0.13 0.00 96 1014.5
20260504022905 3 342 0.0 0.0 0.00 0.13 0.00 96 1014.4
20260504022405 3 342 0.0 0.0 0.00 0.13 0.00 95 1014.4
20260504021905 3 342 0.0 0.0 0.00 0.13 0.00 95 1014.4
20260504021404 3 342 0.0 0.0 0.00 0.13 0.00 95 1014.3
20260504020905 3 342 0.0 0.0 0.00 0.13 0.00 96 1014.3
20260504020406 3 342 0.0 0.0 0.00 0.13 0.00 96 1014.3
20260504015905 3 342 0.0 0.0 0.00 0.13 0.00 96 1014.3
20260504015404 3 342 0.0 0.0 0.00 0.13 0.00 95 1014.3
20260504014905 3 342 0.0 0.0 0.00 0.13 0.00 95 1014.4
20260504013906 3 342 0.0 0.0 0.00 0.13 0.00 95 1014.4
20260504013405 3 342 0.0 0.0 0.00 0.13 0.00 95 1014.4
20260504012905 3 342 0.0 0.0 0.00 0.13 0.00 95 1014.3
20260504012405 3 342 0.0 0.0 0.00 0.13 0.00 96 1014.2
20260504011905 4 342 0.0 0.0 0.00 0.13 0.00 96 1014.2
20260504010906 4 342 0.0 0.0 0.00 0.13 0.00 96 1014.2
20260504010405 4 342 0.0 0.0 0.00 0.13 0.00 96 1014.2
20260504005904 4 342 0.0 0.0 0.00 0.13 0.00 96 1014.1
20260504005405 4 342 0.0 0.0 0.00 0.13 0.00 96 1014.2
20260504004905 4 342 0.0 0.0 0.00 0.13 0.00 96 1014.2
20260504003905 5 342 0.0 0.0 0.00 0.13 0.00 96 1014.0
20260504003404 5 342 0.0 0.0 0.00 0.13 0.00 96 1014.1
20260504002405 5 342 0.0 0.0 0.00 0.13 0.00 96 1014.1
20260504001905 5 342 0.0 0.0 0.00 0.13 0.00 96 1014.2
20260504001405 5 342 0.0 0.0 0.00 0.13 0.00 96 1014.1
20260504000408 5 342 0.0 0.0 0.00 0.13 0.00 96 1014.0
20260503235904 5 342 0.0 0.0 0.00 0.13 0.00 96 1014.0
20260503235404 5 342 0.0 0.0 0.00 0.13 0.00 96 1013.9
20260503234905 5 342 0.0 0.0 0.00 0.13 0.00 96 1013.8
20260503234406 5 342 0.0 0.0 0.00 0.13 0.00 96 1013.7
20260503233905 5 342 0.0 0.0 0.00 0.13 0.00 96 1013.9
20260503233405 5 342 0.0 0.0 0.00 0.13 0.00 96 1013.8
20260503232904 5 342 0.0 0.0 0.00 0.13 0.00 96 1013.8
20260503232405 5 342 0.0 0.0 0.00 0.13 0.00 96 1013.7
20260503231906 5 342 0.0 0.0 0.00 0.13 0.00 96 1013.6
20260503230905 5 342 0.0 0.0 0.00 0.13 0.00 95 1013.7
20260503230406 5 342 0.0 0.0 0.00 0.13 0.00 96 1013.6
20260503225905 5 342 0.0 0.0 0.00 0.13 0.13 96 1013.7
20260503225403 5 342 0.0 0.0 0.00 0.13 0.13 96 1013.8
20260503224903 5 342 0.0 0.0 0.00 0.13 0.13 96 1013.7
20260503224404 5 342 0.0 0.0 0.00 0.13 0.13 95 1013.7
20260503223403 5 342 0.0 0.0 0.00 0.13 0.13 96 1013.6
20260503222403 5 342 0.0 0.0 0.00 0.13 0.13 95 1013.6
20260503221903 5 342 0.0 0.0 0.00 0.13 0.13 95 1013.6
20260503221403 5 342 0.0 0.0 0.00 0.15 0.13 95 1013.6
20260503220904 5 342 0.0 0.0 0.00 0.15 0.13 95 1013.7
20260503220403 6 342 0.0 0.0 0.00 0.15 0.13 95 1013.6
20260503215903 6 342 0.0 0.0 0.00 0.15 0.13 95 1013.6
20260503214903 6 342 0.0 0.0 0.00 0.23 0.13 95 1013.6
20260503214404 6 342 0.0 0.0 0.00 0.23 0.13 95 1013.4
20260503213403 6 342 0.0 0.0 0.00 0.23 0.13 95 1013.4
20260503212903 6 342 0.0 0.0 0.00 0.23 0.13 95 1013.4
20260503212404 6 342 0.0 0.0 0.00 0.23 0.13 95 1013.4
20260503211903 6 342 0.0 0.0 0.00 0.23 0.13 95 1013.5
20260503211404 6 342 0.0 0.0 0.00 0.23 0.13 95 1013.4
20260503210903 6 342 0.0 0.0 0.00 0.23 0.13 95 1013.5
20260503210404 6 342 0.0 0.0 0.00 0.23 0.13 95 1013.4
20260503205904 6 342 0.0 0.0 0.00 0.23 0.13 95 1013.4
20260503205404 6 342 0.0 0.0 0.00 0.23 0.13 95 1013.3
20260503204904 7 342 0.0 0.0 0.00 0.23 0.13 94 1013.2
20260503204403 7 342 0.0 1.6 0.00 0.23 0.13 94 1013.1
20260503203903 7 342 0.0 0.0 0.00 0.23 0.13 94 1013.0
20260503203404 7 342 0.0 1.6 0.00 0.23 0.13 94 1013.0
20260503202904 7 342 0.0 0.0 0.00 0.23 0.13 94 1013.0
20260503201904 8 342 0.0 0.0 0.00 0.23 0.13 94 1013.0
20260503201403 8 342 0.0 0.0 0.00 0.23 0.13 94 1013.0
20260503200903 8 342 0.0 0.0 0.00 0.23 0.13 94 1012.9
20260503195903 9 342 0.0 1.6 0.00 0.23 0.13 94 1012.9
20260503195403 10 342 0.0 1.6 0.00 0.23 0.13 95 1012.9
20260503194904 10 342 0.0 0.0 0.00 0.23 0.13 94 1012.9
20260503194404 10 342 0.0 0.0 0.00 0.23 0.13 94 1012.9
20260503192904 11 342 0.0 0.0 0.00 0.23 0.13 94 1012.7
20260503192404 11 342 0.0 0.0 0.00 0.23 0.13 94 1012.8
20260503191403 11 342 0.0 0.0 0.00 0.23 0.13 93 1012.8
20260503190903 11 342 0.0 0.0 0.00 0.23 0.13 92 1012.7
20260503190405 11 342 0.0 0.0 0.00 0.23 0.13 91 1012.6
20260503185904 11 340 0.0 0.0 0.00 0.23 0.13 90 1012.5
20260503185404 11 340 0.0 1.6 0.00 0.23 0.13 90 1012.5
20260503184403 12 340 0.0 0.0 0.00 0.23 0.13 88 1012.4
20260503183403 12 340 0.0 0.0 0.00 0.23 0.13 89 1012.3
20260503182403 12 340 0.0 1.6 0.00 0.23 0.13 87 1012.2
20260503181904 12 340 0.0 3.2 0.00 0.23 0.13 88 1012.2
20260503181404 13 340 0.0 0.0 0.00 0.23 0.13 91 1012.1
20260503180903 13 340 0.0 0.0 0.00 0.23 0.13 88 1012.1
20260503180403 12 340 0.0 3.2 0.00 0.23 0.13 92 1012.2
20260503175904 12 340 0.0 0.0 0.00 0.23 0.13 94 1012.2
20260503175404 11 340 0.0 0.0 0.00 0.23 0.13 93 1012.2
20260503174905 11 340 0.0 0.0 0.00 0.23 0.13 93 1012.3
20260503174404 11 340 0.0 0.0 0.00 0.23 0.13 93 1012.4
20260503173904 11 340 0.0 0.0 0.00 0.23 0.13 93 1012.4
20260503173403 11 340 0.0 0.0 0.03 0.23 0.13 93 1012.5
20260503172903 11 340 0.0 0.0 0.03 0.23 0.13 93 1012.3
20260503171403 11 340 0.0 3.2 0.03 0.23 0.13 93 1012.3
20260503170904 11 340 0.0 0.0 0.03 0.23 0.13 94 1012.4
20260503170405 11 340 0.0 4.8 0.05 0.23 0.13 94 1012.4
20260503150903 12 342 1.6 4.8 0.00 0.13 0.00 85 1012.6